Regional Weather Roundup
Issued by NWS Green Bay, WI

Home | Current Version | Previous Version | Graphics & Text | Print | Product List | Glossary Off
Versions: 1 2 3 4 5 6 7 8 9 10 11 12 13 14 15 16 17 18 19 20 21 22 23 24 25 26 27 28 29 30 31 32 33 34 35 36 37 38 39 40 41 42 43 44 45 46 47 48 49 50

000
ASUS43 KGRB 252300
RWRGRB

NORTH-CENTRAL AND NORTHEAST WISCONSIN REGIONAL WEATHER ROUNDUP
NATIONAL WEATHER SERVICE GREEN BAY WI
600 PM CDT SAT MAR 25 2017

WIZ005-009-010>012-018-019-260000-
NORTH CENTRAL WISCONSIN

CITY           SKY/WX    TMP DP  RH WIND       PRES   REMARKS
IRONWOOD       CLOUDY    38  30  73 E9        30.17S
MANITOWISH WTR NOT AVBL
ARBOR VITAE    NOT AVBL
EAGLE RIVER    NOT AVBL
LAND O LAKES   NOT AVBL
RHINELANDER    CLOUDY    39  30  70 E16       30.13F
PHILLIPS       NOT AVBL
ANTIGO         NOT AVBL
TOMAHAWK       NOT AVBL
MERRILL        NOT AVBL
$$

WIZ013-073-260000-
NORTHEAST WISCONSIN

CITY           SKY/WX    TMP DP  RH WIND       PRES   REMARKS
IRON MOUNTAIN  CLOUDY    39  26  59 E8        30.19S
MARINETTE        N/A    N/A N/A N/A MISG        N/A
$$

WIZ017-030-035>037-045-260000-
CENTRAL WISCONSIN

CITY           SKY/WX    TMP DP  RH WIND       PRES   REMARKS
MEDFORD        NOT AVBL
WAUSAU         CLOUDY    36  30  79 E14G21    30.10F
MOSINEE        LGT RAIN  36  34  93 E17       30.11F
MARSHFIELD     LGT RAIN  36  32  85 E16       30.08S FOG
WISC RAPIDS    LGT RAIN  35  34  96 E15G26    30.11R FOG
STEVENS POINT  NOT AVBL
WAUPACA        NOT AVBL
SHAWANO        NOT AVBL
CLINTONVILLE   NOT AVBL
WAUTOMA        MIX PCPN  36  34  92 NE13      30.11R FOG
$$

WIZ038-039-048-051-260000-
FOX VALLEY

CITY           SKY/WX    TMP DP  RH WIND       PRES   REMARKS
NWS GREEN BAY  CLOUDY    35  34  96 NE17      30.15R
APPLETON       LGT RAIN  36  36 100 NE13G23   30.10F
OSHKOSH        LGT RAIN  36  35  96 NE10      30.10S VSB 1
FOND DU LAC    LGT RAIN  38  35  89 E14       30.09S FOG
$$

WIZ022-050-052-260000-
EAST CENTRAL WISCONSIN

CITY           SKY/WX    TMP DP  RH WIND       PRES   REMARKS
EPHRAIM        NOT AVBL
WASHINGTON ISL NOT AVBL
STURGEON BAY   MIX PCPN  35  32  88 NE10      30.17F
MANITOWOC      NOT AVBL
SHEBOYGAN      CLOUDY    38  35  89 NE13      30.11S
$$

LMZ563-521-522-541>543-260000-
LAKESHORE

STATION/POSITION TIME  TEMP    WIND        PRES    VSBY  WAVE
                       AIR SEA DIR/SP/G                  HT/PER
                 (UTC) (F)     (DEG/KT/KT) (MB)    (MI)  (FT/S)
SHEBOYGAN LKSHOR 2200   37      30/ 13/ 14 1020.0S
KEWAUNEE LKSHORE 2230   36      50/ 13/ 19 1020.3F
NORTHPORT PIER   2240   34      60/ 16/ 18 1023.0F
SISTER BAY LKSHO 2206   35      90/ 12/ 21   N/A
CHAMBERS ISLAND  2240   34      30/ 14/ 16 1022.4F
MENOMINEE LKSHOR 2230   33      20/ 17/ 19 1021.7F
$$



USA.gov is the U.S. government's official web portal to all federal, state and local government web resources and services.